When you browse on this site, cookies collect data to enhance your experience and personalize the content and advertising you see.
Visit our Privacy Policy to learn more. By continuing to use the site, you agree to this use of cookies and data.
  • In Hungary
  • List of Countries
  • For 7 days
  • Water Temperature
  • Satellite Maps
  • Weather Map
  • News
  • Weather Widgets
  • user-avatar
    Login

    Hourly Weather Chikhli

    Today, 19 January, Saturday

    Time Temperature Precipitation Wind Pressure Humidity
    00:00 +21°C° 0 mm 1 mps 710 mmHg 30%
    01:00 +21°C° 0 mm 1 mps 710 mmHg 31%
    02:00 +20°C° 0 mm 1 mps 709 mmHg 32%
    03:00 +20°C° 0 mm 1 mps 709 mmHg 33%
    04:00 +19°C° 0 mm 2 mps 709 mmHg 34%
    05:00 +18°C° 0 mm 2 mps 709 mmHg 34%
    06:00 +19°C° 0 mm 2 mps 710 mmHg 33%
    07:00 +19°C° 0 mm 2 mps 710 mmHg 32%
    08:00 +20°C° 0 mm 2 mps 711 mmHg 32%
    09:00 +23°C° 0 mm 2 mps 711 mmHg 28%
    10:00 +26°C° 0 mm 2 mps 712 mmHg 24%
    11:00 +28°C° 0 mm 3 mps 712 mmHg 21%
    12:00 +29°C° 0 mm 2 mps 711 mmHg 19%
    13:00 +30°C° 0 mm 2 mps 711 mmHg 17%
    14:00 +31°C° 0 mm 1 mps 710 mmHg 15%
    15:00 +30°C° 0 mm 2 mps 710 mmHg 16%
    16:00 +30°C° 0 mm 2 mps 710 mmHg 16%
    17:00 +30°C° 0 mm 2 mps 710 mmHg 17%
    18:00 +28°C° 0 mm 2 mps 710 mmHg 19%
    19:00 +26°C° 0 mm 2 mps 710 mmHg 20%
    20:00 +24°C° 0 mm 3 mps 710 mmHg 22%
    21:00 +24°C° 0 mm 2 mps 710 mmHg 23%
    22:00 +23°C° 0 mm 2 mps 710 mmHg 24%
    23:00 +23°C° 0 mm 2 mps 710 mmHg 25%

    Tomorrow, 20 January, Sunday

    Time Temperature Precipitation Wind Pressure Humidity
    00:00 +21°C° 0 mm 2 mps 710 mmHg 25%
    01:00 +21°C° 0 mm 2 mps 710 mmHg 26%
    02:00 +21°C° 0 mm 2 mps 710 mmHg 27%
    03:00 +20°C° 0 mm 2 mps 710 mmHg 27%
    04:00 +20°C° 0 mm 2 mps 710 mmHg 28%
    05:00 +20°C° 0 mm 1 mps 710 mmHg 29%
    06:00 +20°C° 0 mm 2 mps 711 mmHg 28%
    07:00 +21°C° 0 mm 2 mps 711 mmHg 28%
    08:00 +23°C° 0 mm 2 mps 712 mmHg 27%
    09:00 +25°C° 0 mm 3 mps 712 mmHg 23%
    10:00 +27°C° 0 mm 3 mps 712 mmHg 19%
    11:00 +30°C° 0 mm 3 mps 713 mmHg 15%
    12:00 +30°C° 0 mm 3 mps 712 mmHg 14%
    13:00 +31°C° 0 mm 2 mps 711 mmHg 13%
    14:00 +32°C° 0 mm 2 mps 711 mmHg 12%
    15:00 +31°C° 0 mm 2 mps 710 mmHg 13%
    16:00 +31°C° 0 mm 2 mps 710 mmHg 14%
    17:00 +31°C° 0 mm 1 mps 710 mmHg 15%
    18:00 +29°C° 0 mm 2 mps 710 mmHg 16%
    19:00 +27°C° 0 mm 2 mps 710 mmHg 17%
    20:00 +26°C° 0 mm 2 mps 710 mmHg 18%
    21:00 +25°C° 0 mm 2 mps 710 mmHg 19%
    22:00 +25°C° 0 mm 2 mps 710 mmHg 20%
    23:00 +24°C° 0 mm 2 mps 710 mmHg 20%

    Day after tomorrow, 21 January, Monday

    Time Temperature Precipitation Wind Pressure Humidity
    00:00 +24°C° 0 mm 2 mps 710 mmHg 21%
    01:00 +23°C° 0 mm 2 mps 709 mmHg 22%
    02:00 +21°C° 0 mm 3 mps 709 mmHg 22%
    03:00 +21°C° 0 mm 3 mps 709 mmHg 23%
    04:00 +21°C° 0 mm 4 mps 709 mmHg 25%
    05:00 +20°C° 0 mm 4 mps 709 mmHg 26%
    06:00 +21°C° 0 mm 4 mps 709 mmHg 27%
    07:00 +22°C° 0 mm 4 mps 710 mmHg 28%
    08:00 +22°C° 0 mm 4 mps 710 mmHg 30%
    09:00 +26°C° 0 mm 5 mps 711 mmHg 27%
    10:00 +28°C° 0 mm 6 mps 711 mmHg 25%
    11:00 +32°C° 0 mm 6 mps 711 mmHg 23%
    12:00 +32°C° 0 mm 6 mps 710 mmHg 21%
    13:00 +33°C° 0 mm 6 mps 709 mmHg 20%
    14:00 +34°C° 0 mm 5 mps 708 mmHg 19%
    15:00 +33°C° 0 mm 5 mps 708 mmHg 20%
    16:00 +33°C° 0 mm 4 mps 708 mmHg 21%
    17:00 +32°C° 0 mm 4 mps 707 mmHg 22%
    18:00 +30°C° 0 mm 4 mps 708 mmHg 24%
    19:00 +28°C° 0 mm 3 mps 708 mmHg 25%
    20:00 +27°C° 0 mm 3 mps 708 mmHg 27%
    21:00 +27°C° 0 mm 3 mps 708 mmHg 27%
    22:00 +27°C° 0 mm 3 mps 708 mmHg 27%
    23:00 +26°C° 0 mm 3 mps 708 mmHg 27%

    22 January, Tuesday

    Time Temperature Precipitation Wind Pressure Humidity
    00:00 +25°C° 0 mm 3 mps 708 mmHg 29%
    01:00 +24°C° 0 mm 3 mps 707 mmHg 31%
    02:00 +21°C° 0 mm 2 mps 707 mmHg 32%
    03:00 +21°C° 0 mm 2 mps 707 mmHg 32%
    04:00 +20°C° 0 mm 2 mps 707 mmHg 32%
    05:00 +20°C° 0 mm 2 mps 707 mmHg 31%
    06:00 +21°C° 0 mm 1 mps 708 mmHg 31%
    07:00 +22°C° 0 mm 1 mps 709 mmHg 30%
    08:00 +22°C° 0 mm 1 mps 710 mmHg 30%
    09:00 +24°C° 0 mm 1 mps 710 mmHg 28%
    10:00 +26°C° 0 mm 2 mps 710 mmHg 27%
    11:00 +28°C° 0 mm 2 mps 711 mmHg 25%
    12:00 +29°C° 0 mm 2 mps 710 mmHg 24%
    13:00 +30°C° 0 mm 3 mps 709 mmHg 22%
    14:00 +32°C° 0 mm 4 mps 708 mmHg 21%
    15:00 +32°C° 0 mm 4 mps 708 mmHg 21%
    16:00 +30°C° 0 mm 4 mps 708 mmHg 21%
    17:00 +30°C° 0 mm 4 mps 708 mmHg 20%
    18:00 +28°C° 0 mm 3 mps 708 mmHg 23%
    19:00 +27°C° 0 mm 2 mps 708 mmHg 25%
    20:00 +25°C° 0 mm 2 mps 709 mmHg 27%
    21:00 +25°C° 0 mm 2 mps 709 mmHg 29%
    22:00 +24°C° 0 mm 2 mps 709 mmHg 31%
    23:00 +23°C° 0 mm 2 mps 709 mmHg 33%

    23 January, Wednesday

    Time Temperature Precipitation Wind Pressure Humidity
    00:00 +21°C° 0 mm 2 mps 709 mmHg 37%
    01:00 +21°C° 0 mm 3 mps 708 mmHg 41%
    02:00 +20°C° 0 mm 3 mps 708 mmHg 45%
    03:00 +19°C° 0 mm 3 mps 708 mmHg 46%
    04:00 +19°C° 0 mm 3 mps 708 mmHg 48%
    05:00 +19°C° 0 mm 3 mps 708 mmHg 50%
    06:00 +19°C° 0 mm 3 mps 709 mmHg 48%
    07:00 +20°C° 0 mm 3 mps 710 mmHg 45%
    08:00 +20°C° 0 mm 3 mps 710 mmHg 43%
    09:00 +22°C° 0 mm 3 mps 711 mmHg 39%
    10:00 +25°C° 0 mm 3 mps 711 mmHg 34%
    11:00 +26°C° 0 mm 2 mps 711 mmHg 30%
    12:00 +27°C° 0 mm 2 mps 710 mmHg 28%
    13:00 +28°C° 0 mm 1 mps 709 mmHg 26%
    14:00 +29°C° 0 mm 1 mps 709 mmHg 24%
    15:00 +29°C° 0 mm 1 mps 709 mmHg 24%
    16:00 +29°C° 0 mm 1 mps 708 mmHg 24%
    17:00 +29°C° 0 mm 1 mps 708 mmHg 23%
    18:00 +28°C° 0 mm 2 mps 709 mmHg 25%
    19:00 +26°C° 0 mm 2 mps 709 mmHg 27%
    20:00 +25°C° 0 mm 2 mps 709 mmHg 29%
    21:00 +24°C° 0 mm 2 mps 709 mmHg 29%
    22:00 +24°C° 0 mm 2 mps 709 mmHg 28%
    23:00 +23°C° 0 mm 2 mps 709 mmHg 28%

    24 January, Thursday

    Time Temperature Precipitation Wind Pressure Humidity
    00:00 +23°C° 0 mm 2 mps 709 mmHg 29%
    01:00 +21°C° 0 mm 2 mps 709 mmHg 29%
    02:00 +21°C° 0 mm 2 mps 708 mmHg 30%
    03:00 +20°C° 0 mm 2 mps 708 mmHg 30%
    04:00 +20°C° 0 mm 2 mps 709 mmHg 31%
    05:00 +19°C° 0 mm 2 mps 709 mmHg 32%
    06:00 +20°C° 0 mm 2 mps 709 mmHg 31%
    07:00 +20°C° 0 mm 2 mps 710 mmHg 30%
    08:00 +21°C° 0 mm 2 mps 711 mmHg 29%
    09:00 +24°C° 0 mm 2 mps 711 mmHg 27%
    10:00 +26°C° 0 mm 2 mps 711 mmHg 25%
    11:00 +28°C° 0 mm 2 mps 711 mmHg 23%
    12:00 +29°C° 0 mm 2 mps 710 mmHg 22%
    13:00 +30°C° 0 mm 2 mps 709 mmHg 22%
    14:00 +31°C° 0 mm 3 mps 709 mmHg 21%
    15:00 +31°C° 0 mm 3 mps 708 mmHg 22%
    16:00 +30°C° 0 mm 3 mps 708 mmHg 22%
    17:00 +30°C° 0 mm 3 mps 708 mmHg 22%
    18:00 +29°C° 0.1 mm 2 mps 708 mmHg 25%
    19:00 +28°C° 0.1 mm 2 mps 708 mmHg 29%
    20:00 +26°C° 0.1 mm 2 mps 709 mmHg 32%
    21:00 +26°C° 0.4 mm 2 mps 709 mmHg 35%
    22:00 +25°C° 0.4 mm 2 mps 709 mmHg 38%
    23:00 +24°C° 0.4 mm 1 mps 709 mmHg 41%
    Show more